Lapse_Rate
5.9 6.5 6.5 6.5 6.5 6.5 6.5 6.5 6.5 6.5 6.5 6.5 6.5 6.5 6.5 4.7 4.4 3.7 2.1 3.1 1.3 2.5 2.6 1.6 1.6 1.2 1.2 1.4 2.0 1.9 1.9 1.1 0.5 0.4 0.6 0.5 0.8 0.3 0.6 1.6 2.4 2.1 2.3 2.8
6.5 6.5 6.5 6.5 6.5 6.5 6.5 6.5 6.5 6.5 6.5 6.5 6.5 6.5 6.5 6.1 5.3 3.1 2.3 2.3 1.5 1.8 2.1 2.4 2.2 2.8 2.8 1.9 1.6 1.4 1.4 1.2 1.1 0.4 0.1 -0.1 -0.3 -0.3 -0.0 0.9 1.6 1.8 1.9 2.1
6.5 6.5 6.4 6.5 6.5 6.5 6.5 6.5 6.5 6.5 6.5 6.5 6.5 6.5 6.5 6.5 6.0 4.7 3.1 0.9 1.8 1.5 2.1 2.8 3.0 2.5 1.4 1.6 1.3 1.7 1.4 1.4 1.0 0.7 0.1 -0.3 -0.5 -0.4 -0.1 -0.1 0.1 0.7 1.6 1.8
6.5 6.3 6.5 6.5 6.5 6.5 6.5 6.5 6.5 6.5 6.5 6.5 6.5 6.5 6.5 6.5 6.5 6.4 3.6 1.8 1.9 2.4 2.9 2.8 3.1 2.2 1.7 1.4 1.0 1.4 1.5 1.5 1.2 0.3 -0.1 0.2 -0.2 0.0 -0.8 -0.9 -0.6 -0.1 1.4 1.6
6.5 6.5 6.5 6.5 6.5 6.5 6.5 6.5 6.5 6.5 6.5 6.5 6.5 6.5 6.5 6.5 6.5 6.5 5.1 2.6 1.8 1.6 2.1 2.5 2.6 2.5 2.2 1.3 0.7 0.7 1.3 1.3 0.8 0.3 -0.3 -1.0 -0.5 -1.2 -1.1 -0.7 -0.1 0.0 0.5 1.5
6.5 6.3 6.5 6.5 6.5 6.5 6.5 6.5 6.5 6.5 6.5 6.5 6.5 6.5 6.5 6.5 6.5 6.5 5.7 3.6 2.4 1.9 2.2 2.5 2.4 2.3 2.1 0.9 0.8 0.7 1.4 1.5 0.8 0.3 -0.2 -0.3 -0.0 -0.1 -0.1 -0.2 -0.3 -0.2 0.0 0.3
6.5 6.5 6.5 6.2 6.5 6.5 6.5 6.5 6.5 6.5 6.5 6.5 6.5 6.5 6.5 6.5 6.5 6.5 5.9 3.2 2.0 1.8 1.8 1.9 2.0 1.9 1.8 1.4 1.1 1.2 1.3 1.7 1.0 0.6 0.3 0.0 -0.1 -0.1 0.3 -0.0 -0.1 0.5 0.3 0.4
6.5 6.5 6.5 6.5 6.5 6.5 6.5 6.5 6.5 6.5 6.5 6.5 6.5 6.5 6.5 6.5 6.2 5.9 4.2 2.6 2.3 2.1 2.0 1.6 1.5 1.4 1.4 1.4 1.0 1.2 1.1 1.4 0.8 0.6 0.6 0.2 0.2 -0.4 -0.2 0.1 0.1 0.2 0.2 0.2
6.5 6.5 6.5 6.5 6.5 6.5 6.5 6.5 6.5 6.5 6.5 6.5 6.5 6.5 6.5 6.5 6.5 6.2 4.7 3.5 3.1 2.7 1.8 1.8 1.7 1.3 1.2 1.3 1.4 1.4 1.5 1.7 1.2 1.2 0.8 0.7 0.5 0.7 0.6 0.8 0.5 0.4 0.7 1.6
6.5 6.5 6.5 6.5 6.4 6.4 6.5 6.5 6.5 6.5 6.5 6.5 6.5 6.5 6.5 6.5 6.5 6.5 6.3 4.8 3.9 3.0 2.7 1.9 1.5 1.3 0.9 1.1 1.4 1.3 1.4 1.7 1.6 1.3 0.9 1.1 0.9 1.0 0.9 0.8 1.1 1.1 0.9 1.4
6.5 6.5 6.5 6.5 6.5 6.5 6.5 6.5 6.5 6.5 6.5 6.5 6.5 6.5 6.5 6.5 6.5 6.5 5.9 4.3 3.9 3.7 2.5 1.8 1.2 1.0 1.0 1.1 1.1 1.2 1.4 1.8 1.7 1.5 1.5 1.3 1.4 1.5 1.4 1.2 1.1 1.1 1.3 1.3
6.5 6.5 6.5 6.5 6.5 6.5 6.5 6.5 6.5 6.5 6.5 6.5 6.5 6.5 6.5 6.5 6.4 5.2 4.3 3.7 3.4 2.7 1.5 0.4 1.3 1.8 1.5 1.0 0.8 0.9 1.2 1.4 1.7 1.7 1.6 1.7 1.7 1.5 1.3 1.3 1.6 1.3 1.5 1.4
6.5 6.5 6.5 6.5 6.5 6.5 6.5 6.5 6.5 6.5 6.5 6.5 6.5 6.5 6.6 5.6 5.4 4.7 3.8 3.4 3.4 3.0 2.4 2.1 1.8 1.7 1.8 1.6 1.3 1.2 1.4 1.5 1.8 1.7 1.8 2.0 1.9 1.6 1.6 1.6 1.7 1.7 1.6 1.5
5.8 6.5 6.5 6.5 6.5 6.5 6.5 6.5 6.5 6.5 6.5 6.5 6.5 6.5 6.5 6.5 6.5 5.6 4.5 4.1 3.6 3.5 3.6 3.3 2.5 1.9 1.2 1.3 1.8 1.9 1.9 1.6 1.8 1.8 1.9 2.1 2.0 2.0 1.8 1.8 1.9 1.9 1.9 1.7
6.5 6.5 6.5 6.5 6.5 6.5 6.5 6.5 6.5 6.5 6.5 6.5 6.5 6.5 6.5 6.5 6.5 5.3 4.9 4.9 4.2 4.2 4.1 3.7 3.4 2.7 2.5 1.9 1.4 2.4 2.3 2.3 2.2 2.2 2.4 2.5 2.3 2.1 2.2 2.2 2.2 2.2 2.1 2.4
6.4 6.5 6.5 6.5 6.5 6.5 6.5 6.5 6.5 6.5 6.5 6.5 6.5 6.5 6.6 5.0 4.4 5.0 5.0 4.8 4.6 4.5 4.2 3.7 3.4 3.2 3.4 2.2 2.7 2.4 2.4 2.7 3.1 3.2 3.3 3.3 3.2 3.2 3.1 2.9 3.1 3.3 3.4 3.6
6.5 6.5 6.5 6.5 6.5 6.5 6.5 6.5 6.5 6.5 6.5 6.5 6.5 6.5 6.1 6.5 6.0 5.2 4.8 4.8 4.8 4.8 4.6 4.0 3.5 3.4 3.2 3.2 3.3 3.1 3.4 3.7 3.8 3.9 4.1 4.3 4.3 4.2 4.2 4.6 4.9 4.9 4.8 3.5
6.5 6.5 6.5 6.5 6.5 6.5 6.5 6.5 6.5 6.5 6.5 6.5 6.5 6.5 6.3 5.6 4.9 4.8 5.3 4.5 4.7 5.1 4.9 4.6 4.0 3.8 3.7 3.8 3.9 4.2 4.4 4.2 4.4 4.4 4.8 4.9 4.9 4.7 5.4 5.3 4.6 4.0 3.8 3.5
6.2 6.5 6.5 6.5 6.5 6.5 6.5 6.5 6.5 6.5 6.5 6.5 6.5 6.4 5.9 5.4 4.9 5.6 5.7 5.3 5.1 5.4 5.2 5.1 4.7 5.0 4.5 4.6 4.1 4.1 4.6 4.1 4.3 4.6 4.6 4.6 4.6 4.6 4.7 4.4 4.1 3.6 3.2 3.0
6.5 6.5 6.5 6.5 6.5 6.5 6.5 6.5 6.2 6.4 6.5 6.3 5.7 6.0 5.8 5.2 6.5 6.5 6.1 6.1 6.2 6.2 5.8 4.9 5.3 5.5 5.1 5.0 4.3 3.9 3.9 3.5 3.9 4.6 4.8 4.7 4.8 4.8 4.6 4.3 3.9 3.7 3.5 3.7
6.5 6.5 6.5 6.5 6.5 6.5 6.5 6.3 5.9 6.5 6.5 5.7 5.0 5.2 5.7 6.3 5.4 5.4 6.3 6.6 6.2 6.0 6.3 5.6 4.9 4.4 4.3 4.1 4.0 4.4 4.4 4.4 5.1 4.8 4.5 4.5 4.5 4.6 4.4 4.2 3.9 4.1 3.8 3.6
6.5 6.5 6.5 6.5 6.5 6.5 5.9 6.3 6.5 6.0 5.1 4.6 5.2 5.7 5.8 5.8 6.3 6.0 6.3 6.3 6.2 6.2 6.1 5.8 4.7 4.4 4.3 4.1 4.1 4.3 4.1 5.2 4.8 4.6 4.5 4.7 4.9 5.5 6.7 4.8 5.1 4.6 3.7 3.5
6.5 6.5 6.5 6.5 6.5 5.9 4.3 5.5 4.0 4.0 4.4 5.3 5.3 5.9 5.9 6.4 6.1 6.2 5.7 5.6 5.0 4.9 4.3 4.2 3.8 3.7 3.7 4.0 4.4 4.5 5.5 5.0 5.5 5.2 5.3 5.1 5.2 5.7 5.7 5.1 4.9 4.6 5.2 5.2
6.5 6.0 6.5 6.5 6.5 6.3 5.0 4.8 5.0 5.2 5.0 5.6 6.2 6.3 6.2 6.2 6.3 5.9 5.1 4.6 4.2 3.9 3.8 4.0 3.7 3.6 3.7 4.0 4.4 4.3 5.1 5.5 5.2 5.0 5.4 5.6 4.8 5.5 5.7 5.1 5.7 5.5 6.1 6.1
6.0 6.3 6.5 6.5 6.3 6.1 5.3 4.6 4.9 5.7 6.5 6.6 6.6 6.3 6.5 6.2 5.7 5.3 4.5 4.2 4.0 3.9 4.0 3.9 3.9 4.4 4.2 3.9 3.9 4.4 5.2 5.3 5.4 5.7 5.9 5.9 6.0 5.9 6.0 6.2 6.6 6.9 6.9 7.3
5.0 6.5 6.5 6.5 5.2 5.2 5.3 3.4 5.3 6.6 6.9 6.8 6.1 6.3 6.0 6.0 5.1 5.0 4.0 3.9 3.7 4.3 4.6 3.9 4.2 4.2 4.2 4.0 4.6 4.7 4.6 5.2 5.5 5.8 6.2 6.3 6.7 6.8 7.0 7.1 7.1 8.1 8.9 8.9
Wind_Speed
1 6 3 3 4 4 1 2 3 1 1 2 6 6 9 7 5 8 8 5 7 7 4 6 6 7 7 5 6 4 4 2 2 2 2 1 1 2 2 5 6 8 7 7
6 3 2 2 1 2 2 4 2 1 1 2 2 10 9 6 6 8 9 7 8 6 6 6 6 5 4 5 5 5 5 3 2 1 0 1 1 0 1 3 7 9 8 7
6 1 2 1 6 4 3 3 5 3 2 0 4 8 3 2 2 4 3 5 5 11 10 7 6 5 5 6 5 5 4 3 2 2 1 2 2 2 3 3 3 6 9 9
5 4 1 4 5 1 2 2 2 6 4 3 3 4 5 1 2 2 4 7 8 7 5 6 6 5 6 4 4 5 4 4 2 2 3 2 2 1 1 1 2 4 8 8
2 3 5 6 1 1 2 2 3 3 4 4 1 3 7 1 4 6 7 8 8 8 8 8 8 7 5 6 5 4 4 3 2 3 4 3 2 1 1 2 4 5 6 8
3 2 3 2 1 2 2 4 7 5 4 2 1 5 6 3 3 2 4 6 9 9 8 7 6 5 4 3 4 4 4 3 3 3 3 4 3 1 1 2 3 3 3 3
5 4 3 3 3 4 6 6 3 3 3 5 2 2 9 4 1 2 8 9 9 8 8 7 7 6 5 6 5 4 5 4 3 3 3 3 3 2 2 0 1 3 3 2
5 4 2 4 3 4 2 4 5 6 3 4 2 5 6 4 0 2 4 7 6 6 5 8 8 7 7 8 7 6 7 5 5 4 4 3 3 2 1 1 1 2 2 2
4 2 2 2 2 2 3 1 2 6 3 3 2 7 7 2 2 2 3 6 6 6 8 8 7 7 6 6 7 7 5 4 4 4 2 2 2 2 2 3 2 2 2 2
4 5 1 1 1 1 1 2 3 3 2 4 5 5 5 4 3 2 4 5 5 5 6 7 7 8 7 7 7 7 6 6 5 4 3 3 3 3 3 2 4 4 4 3
1 3 2 2 4 6 1 0 3 3 4 4 1 6 5 3 5 6 5 6 4 4 7 8 7 7 7 7 7 7 7 6 5 4 3 3 4 4 3 3 4 3 3 3
1 4 3 1 1 1 1 2 4 4 4 0 3 6 4 4 2 5 7 7 6 5 7 7 5 5 6 7 7 8 7 7 6 5 4 5 4 4 4 4 4 3 4 3
1 1 2 5 4 3 3 4 4 4 2 6 5 5 2 5 7 5 8 6 5 6 8 8 8 7 6 7 6 6 6 7 6 6 6 4 4 4 5 5 5 4 4 5
2 2 4 5 2 4 3 4 4 4 3 3 6 2 4 5 6 5 6 6 6 7 8 8 10 8 8 5 6 6 7 6 6 6 5 5 4 4 5 5 5 5 4 5
3 4 2 4 6 4 4 5 8 9 7 7 3 7 7 6 7 6 5 5 7 7 8 8 8 9 11 12 7 4 5 5 4 5 5 6 4 4 4 5 5 5 5 5
2 1 2 4 3 5 6 8 10 11 6 10 6 10 5 5 7 6 6 6 7 6 6 7 8 10 11 9 9 8 7 6 3 4 5 4 4 5 6 6 6 5 6 6
2 3 2 3 4 5 8 7 11 6 4 8 9 8 7 5 7 6 6 6 6 5 5 6 6 5 6 7 7 8 7 7 6 5 6 7 6 6 6 6 5 6 6 4
5 4 3 3 2 2 5 1 2 7 2 4 2 3 4 7 5 5 3 5 5 5 5 4 4 5 5 4 5 5 5 6 6 6 6 6 6 6 6 5 5 5 4 6
3 4 1 2 3 6 6 2 1 3 2 1 7 6 8 7 5 4 3 4 5 4 3 1 1 1 4 5 5 5 6 5 5 6 6 7 6 6 6 6 7 6 5 6
4 3 3 3 3 6 3 1 1 1 4 2 6 6 7 7 4 3 4 4 4 3 2 2 1 2 3 5 5 6 6 6 7 8 9 7 7 7 7 7 7 5 4 6
3 0 5 4 3 7 4 3 1 4 4 4 5 4 3 2 2 3 3 1 2 2 1 2 3 3 5 6 5 6 6 7 9 9 8 8 7 8 8 8 5 7 7 6
6 6 4 3 3 8 3 2 5 3 3 6 5 5 5 4 3 5 4 4 4 4 3 3 3 5 6 6 4 7 7 10 9 9 8 8 9 8 9 7 10 9 7 7
3 5 4 8 5 1 2 1 1 4 5 4 4 3 4 4 3 1 2 3 4 6 5 4 5 6 7 7 5 7 10 7 10 9 10 8 8 10 9 8 9 7 9 7
0 1 3 1 2 2 2 1 2 3 4 4 4 5 5 4 3 3 3 5 5 6 7 6 7 8 8 7 7 7 10 9 9 10 11 9 8 11 9 6 6 6 8 8
4 3 1 4 3 1 4 5 5 4 3 3 2 2 3 3 3 3 5 7 7 7 7 6 8 10 11 8 8 8 9 8 10 11 10 10 8 9 9 9 9 8 10 10
4 8 5 5 4 4 4 6 6 5 5 5 5 3 3 3 5 4 7 7 6 9 9 8 11 11 12 9 9 8 8 8 10 11 9 9 9 8 8 8 10 17 20 23
Wind_Direction
73 76 142 181 174 137 182 183 174 295 219 163 243 272 250 238 235 234 232 209 161 147 108 110 108 120 119 121 112 101 110 42 66 49 53 24 21 347 11 17 27 15 15 19
37 101 234 290 327 45 25 173 158 339 105 107 344 272 260 233 232 206 204 176 159 131 126 129 130 124 121 127 118 113 104 95 62 84 109 148 150 269 282 350 23 32 37 31
119 165 315 119 46 101 58 185 168 174 104 316 328 294 298 30 66 74 86 150 144 159 156 158 147 138 128 127 139 126 128 118 93 123 129 59 55 33 13 1 349 1 27 44
90 321 77 86 81 351 140 301 107 109 95 217 60 268 291 177 120 109 100 153 163 164 159 164 156 152 158 156 144 136 147 139 114 86 73 87 129 150 256 297 311 352 25 29
228 28 66 76 93 307 140 27 61 89 98 59 329 72 268 321 211 216 189 183 187 190 179 181 178 177 180 156 161 162 146 130 134 110 125 120 101 29 340 351 0 0 6 20
102 77 60 103 62 66 116 65 42 54 71 21 270 129 280 219 210 189 186 191 188 189 192 183 179 155 160 162 156 166 166 175 155 128 108 109 110 104 45 2 2 343 343 355
13 354 356 54 80 26 66 57 6 358 3 216 284 49 246 252 302 243 189 186 192 181 170 166 163 178 184 186 190 188 187 194 178 148 142 152 156 158 152 352 309 336 336 342
136 330 43 353 60 163 119 143 155 204 197 254 45 235 258 221 130 318 176 177 163 168 170 185 193 195 198 198 198 198 196 199 190 182 182 175 163 165 187 218 239 266 265 289
134 18 319 43 25 82 165 203 159 104 10 43 239 286 303 224 326 12 168 152 170 188 202 208 216 215 212 209 212 207 209 226 214 215 194 193 188 185 223 249 249 263 283 303
190 88 356 339 23 51 150 161 63 1 168 253 291 283 241 247 195 185 148 163 210 238 242 238 227 218 212 206 203 200 203 211 220 221 210 213 219 224 243 261 271 278 301 321
104 94 278 51 202 180 101 236 65 125 146 178 279 264 218 224 185 188 182 199 228 277 279 255 241 229 213 200 198 201 200 204 211 210 218 221 240 250 260 264 276 278 298 313
15 118 150 177 304 359 210 200 152 127 224 137 143 275 332 152 110 128 72 73 60 42 20 354 278 271 252 223 206 203 203 204 210 210 207 223 239 248 255 261 264 268 276 281
49 5 57 350 356 357 218 199 162 123 100 204 144 259 27 91 79 71 101 76 57 40 31 18 17 357 277 246 242 225 215 218 212 197 203 223 244 257 264 271 281 288 293 294
86 115 163 188 199 130 207 207 198 137 124 183 230 250 198 180 132 96 86 86 73 54 37 26 18 4 356 302 228 218 232 219 211 202 205 223 241 256 268 272 278 281 280 282
113 198 150 240 231 214 220 194 186 197 197 184 242 209 207 195 153 144 128 94 67 47 37 27 21 12 14 16 3 308 260 243 223 211 222 238 249 253 260 264 266 270 277 279
16 286 90 304 303 224 265 236 215 226 224 249 260 264 202 132 116 116 114 94 75 55 38 26 22 20 15 7 8 14 12 1 344 310 296 296 275 263 256 255 256 264 272 280
107 119 74 277 359 346 296 236 199 194 212 207 220 236 156 144 135 142 131 113 104 79 56 40 30 26 15 10 8 12 3 2 6 343 326 316 302 285 272 268 267 267 273 273
144 134 143 242 19 218 240 90 162 202 221 211 76 109 142 133 114 111 130 126 105 86 57 34 19 14 10 7 16 351 359 352 344 334 321 312 302 289 287 299 296 285 270 272
162 136 191 208 216 295 301 58 163 185 223 338 140 119 111 124 90 36 122 133 147 147 150 121 4 334 348 357 348 349 342 336 328 317 312 308 311 307 298 285 278 270 266 275
59 69 139 146 199 236 222 209 40 356 286 59 136 157 154 157 180 210 190 163 154 129 139 102 13 319 351 330 336 343 330 329 316 306 298 289 290 282 276 270 272 266 256 268
139 128 206 215 261 284 239 183 281 122 235 136 126 139 133 169 203 158 177 191 165 164 57 26 3 322 296 309 326 311 304 292 287 293 295 293 283 272 269 268 256 261 261 257
172 155 200 156 206 275 143 84 176 177 108 140 151 163 155 166 178 155 172 204 214 250 276 289 275 280 287 295 312 298 295 289 286 288 288 286 285 285 292 275 278 275 268 269
240 196 187 193 216 10 359 306 105 138 144 179 155 167 174 192 219 193 243 284 284 285 281 265 246 268 276 281 267 273 279 278 286 287 287 283 280 280 273 269 273 275 274 268
211 328 237 21 228 201 183 83 151 165 150 162 169 185 194 198 202 255 284 284 286 286 278 274 280 273 269 259 264 246 278 287 285 283 285 282 272 281 278 268 263 264 275 277
213 333 263 259 240 355 258 220 198 193 176 179 229 205 213 200 236 237 270 276 268 266 271 267 263 265 264 262 261 262 265 271 281 284 282 282 279 276 280 274 270 269 272 267
203 250 253 260 237 204 217 199 184 170 184 216 189 227 238 242 265 273 268 262 262 274 276 269 268 265 264 265 266 265 258 264 274 283 284 277 279 280 282 284 287 278 276 283